Retour au catalogue

KUIPER-00503

ActifCommunicationsLEO
NORAD 68884·PAYLOAD·🇺🇸 United States

Lancé Apr 28, 2026 depuis Cape Canaveral Space Force Station

Loading…

Prochains Passages (prochaines 24 heures)

TLE

FraisSource: CelesTrak SupGP

Époque: Sep 15, 2026, 00:39 UTC

1 68884C 26095W   26258.02755787 -.00018607  00000+0 -24362-2 0  2580
2 68884  51.8971 210.8617 0000882  66.2793 352.5877 14.79942510    13

Suivez KUIPER-00503 en temps réel avec AllMySat

Download on the App Store